Regional Weather Roundup
Issued by NWS Northern Indiana

Home | Current Version | Previous Version | Text Only | Print | Product List | Glossary On
Versions: 1 2 3 4 5 6 7 8 9 10 11 12 13 14 15 16 17 18 19 20 21 22 23 24 25 26 27 28 29 30 31 32 33 34 35 36 37 38 39 40 41 42 43 44 45 46 47 48 49 50
925
ASUS43 KIWX 042210
RWRIWX

KIWX WEATHER ROUNDUP
NATIONAL WEATHER SERVICE NORTHERN INDIANA
600 PM EDT WED MAY 04 2016

NOTE: "FAIR" INDICATES FEW OR NO CLOUDS BELOW 12,000 FEET WITH NO
SIGNIFICANT WEATHER AND/OR OBSTRUCTIONS TO VISIBILITY.

* THESE STATIONS ARE NOT UNDER NWS QUALITY CONTROL. THEY ALSO MAY NOT
  REPORT WEATHER SUCH AS PRECIPITATION OR FOG.

INZ001>027-042300-
NORTHERN INDIANA

CITY           SKY/WX    TMP DP  RH WIND       PRES   REMARKS
GARY*          CLOUDY    46  41  81 N14       29.83R
VALPARAISO     CLOUDY    44  35  70 N10G24    29.80S
MICHIGAN CITY* LGT RAIN  43  36  75 N13G23    29.80S
LAPORTE*       LGT RAIN  44  39  81 N22G32    29.79R
KNOX*          CLOUDY    43  30  61 N18G29    29.79R
SOUTH BEND     LGT RAIN  39  36  89 NW21G35   29.76R
ELKHART*       CLOUDY    39  39 100 NW14G28   29.74R
GOSHEN         LGT RAIN  41  37  86 NW24G32   29.72R
MONTICELLO*    CLOUDY    49  35  58 N15G25    29.79R
LOGANSPORT*    CLOUDY    46  36  66 NW18G28   29.78R
ROCHESTER*     CLOUDY    48  36  61 NW18G31   29.75R
WARSAW*        CLOUDY    43  36  75 NW18G28   29.73R
ANGOLA*        CLOUDY    43  34  70 NW15      29.66R
FORT WAYNE     CLOUDY    46  38  73 NW17G24   29.70R
HUNTINGTON*    CLOUDY    48  36  63 NW21G26   29.71R
PERU/GRISSOM   CLOUDY    49  37  62 NW20G29   29.74R
MARION*        CLOUDY    48  38  67 NW20G28   29.74S

$$
INZ028>050-042300-
CENTRAL INDIANA

CITY           SKY/WX    TMP DP  RH WIND       PRES   REMARKS
LAFAYETTE      CLOUDY    49  38  65 N14G24    29.79R
KOKOMO*        CLOUDY    48  36  61 NW23G32   29.75R
MUNCIE*        CLOUDY    50  39  66 NW22G30   29.73R
INDIANAPOLIS   PTSUNNY   52  35  52 NW21G30   29.75R

$$
MIZ043>046-050>051-056>058-064>065-071>073-077>080-042300-
SOUTHWEST LOWER MICHIGAN

CITY           SKY/WX    TMP DP  RH WIND       PRES   REMARKS
BATTLE CREEK   LGT RAIN  42  39  89 NW16      29.64S FOG
BENTON HARBOR  LGT RAIN  39  35  86 NW13G28   29.76R
COLDWATER*     CLOUDY    44  40  85 NW18      29.65R
HILLSDALE*     CLOUDY    45  39  78 NW14      29.62R
HOLLAND        LGT RAIN N/A N/A N/A NW13G23   29.72R
GRAND RAPIDS   LGT RAIN  43  40  89 N18G28    29.66R
KALAMAZOO      LGT RAIN  41  37  86 NW13      29.68R FOG
STURGIS*       DRIZZLE   40  37  89 NW17G23   29.67R
THREE RIVERS*  LGT RAIN  41  37  86 NW18G24   29.69R

$$
OHZ001>008-015>018-024>025-042300-
NORTHWEST OHIO

CITY           SKY/WX    TMP DP  RH WIND       PRES   REMARKS
WAUSEON*         N/A     46 N/A N/A W14       29.63R
DEFIANCE       CLOUDY    48  39  71 W10G20    29.66R
FINDLAY        CLOUDY    50  41  71 W14       29.64R
TOLEDO EXPRESS CLOUDY    50  40  68 W13G20    29.63R
TOLEDO METCALF CLOUDY    53  41  63 W15       29.63R
LIMA           CLOUDY    48  42  80 W20       29.66R

$$
AND FOR LAKE MICHIGAN COASTAL AND OPEN LAKE BUOY OBSERVATIONS

STATION/POSITION TEMP    WIND        PRES    VSBY  WAVE
                 AIR SEA DIR/SP/G                  HT/PER
                 (F)     (DEG/KT/KT) (MB)    (MI)  (FT/S)
CALUMET HARBOR    44     330/ 10/ 18 1009.2R
MICHIGAN CITY     43     330/ 23/ 27   N/A
BURNS HARBOR      44     360/ 17/ 21 1009.5S
SAINT JOSEPH      41     330/ 30/ 37 1008.5R
SOUTH LAKE BUOY   42 40   10/ 23/ 29 1008.1R         8/ 8
4 MI NW BRIDGMAN  42 47                N/A          10/ 7

$$
&&




USA.gov is the U.S. government's official web portal to all federal, state and local government web resources and services.